TimeCDT,TemperatureF,Dew PointF,Humidity,Sea Level PressureIn,VisibilityMPH,Wind Direction,Wind SpeedMPH,Gust SpeedMPH,PrecipitationIn,Events,Conditions,WindDirDegrees,DateUTC
12:15 AM,30.2,27.5,90,29.76,5.0,NW,17.3,25.3,N/A,Snow,Light Snow,310,2013-04-19 05:15:00
12:35 AM,29.7,27.1,90,29.76,4.0,NW,15.0,25.3,N/A,Snow,Light Snow,310,2013-04-19 05:35:00
12:55 AM,29.3,26.4,89,29.76,5.0,NW,19.6,27.6,N/A,,Overcast,310,2013-04-19 05:55:00
1:15 AM,28.8,25.7,88,29.75,5.0,NW,17.3,27.6,N/A,,Overcast,310,2013-04-19 06:15:00
1:35 AM,28.4,25.5,89,29.75,7.0,NW,16.1,23.0,N/A,,Overcast,310,2013-04-19 06:35:00
1:55 AM,28.4,22.8,80,29.75,10.0,NW,13.8,23.0,N/A,,Overcast,310,2013-04-19 06:55:00
2:15 AM,27.9,21.9,78,29.75,10.0,NW,13.8,20.7,N/A,,Overcast,310,2013-04-19 07:15:00
2:35 AM,27.5,21.2,77,29.75,10.0,NW,15.0,19.6,N/A,,Mostly Cloudy,310,2013-04-19 07:35:00
2:55 AM,27.1,20.8,77,29.75,10.0,WNW,13.8,20.7,N/A,,Scattered Clouds,300,2013-04-19 07:55:00
3:15 AM,26.4,20.3,78,29.75,10.0,WNW,12.7,18.4,N/A,,Clear,300,2013-04-19 08:15:00
3:35 AM,26.1,20.3,79,29.75,10.0,WNW,12.7,18.4,N/A,,Clear,300,2013-04-19 08:35:00
3:55 AM,25.9,20.1,79,29.75,10.0,WNW,13.8,19.6,N/A,,Clear,300,2013-04-19 08:55:00
4:15 AM,25.7,19.9,79,29.75,10.0,NW,12.7,17.3,N/A,,Clear,310,2013-04-19 09:15:00
4:35 AM,25.5,19.8,79,29.75,10.0,WNW,13.8,23.0,N/A,,Clear,300,2013-04-19 09:35:00
4:55 AM,24.8,19.4,80,29.75,10.0,WNW,12.7,16.1,N/A,,Clear,300,2013-04-19 09:55:00
5:15 AM,24.6,19.4,81,29.76,10.0,NW,11.5,-,N/A,,Clear,310,2013-04-19 10:15:00
5:55 AM,24.4,19.0,80,29.76,10.0,WNW,16.1,20.7,N/A,,Clear,300,2013-04-19 10:55:00
6:15 AM,23.9,18.5,80,29.77,10.0,WNW,12.7,19.6,N/A,,Clear,290,2013-04-19 11:15:00
6:35 AM,23.5,18.3,80,29.78,10.0,WNW,11.5,20.7,N/A,,Clear,300,2013-04-19 11:35:00
6:55 AM,23.0,18.1,82,29.79,10.0,WNW,12.7,20.7,N/A,,Clear,300,2013-04-19 11:55:00
7:15 AM,23.7,18.3,80,29.79,10.0,WNW,13.8,21.9,N/A,,Clear,300,2013-04-19 12:15:00
7:35 AM,24.3,18.3,78,29.79,10.0,WNW,19.6,24.2,N/A,,Clear,290,2013-04-19 12:35:00
7:55 AM,24.8,18.3,76,29.80,10.0,WNW,17.3,24.2,N/A,,Clear,300,2013-04-19 12:55:00
8:15 AM,25.2,18.5,76,29.80,10.0,WNW,15.0,21.9,N/A,,Clear,300,2013-04-19 13:15:00
8:35 AM,26.4,19.4,75,29.81,10.0,WNW,16.1,20.7,N/A,,Clear,290,2013-04-19 13:35:00
8:55 AM,27.9,19.8,72,29.81,10.0,WNW,18.4,24.2,N/A,,Clear,290,2013-04-19 13:55:00
9:15 AM,28.2,19.9,71,29.81,10.0,WNW,12.7,24.2,N/A,,Clear,300,2013-04-19 14:15:00
9:55 AM,29.1,21.0,72,29.82,10.0,WNW,17.3,23.0,N/A,,Scattered Clouds,290,2013-04-19 14:55:00
10:15 AM,30.2,21.2,69,29.83,10.0,WNW,16.1,23.0,N/A,,Scattered Clouds,300,2013-04-19 15:15:00
10:35 AM,30.4,21.9,71,29.84,10.0,WNW,17.3,24.2,N/A,,Scattered Clouds,300,2013-04-19 15:35:00
10:55 AM,31.1,22.6,71,29.84,10.0,WNW,16.1,21.9,N/A,,Scattered Clouds,290,2013-04-19 15:55:00
11:15 AM,31.8,23.0,70,29.85,10.0,WNW,17.3,25.3,N/A,,Clear,290,2013-04-19 16:15:00
11:35 AM,32.0,23.0,69,29.86,10.0,WNW,20.7,25.3,N/A,,Clear,290,2013-04-19 16:35:00
11:55 AM,32.2,23.5,70,29.87,10.0,WNW,18.4,25.3,N/A,,Clear,290,2013-04-19 16:55:00
12:15 PM,32.7,24.6,72,29.87,10.0,WNW,13.8,25.3,N/A,,Clear,290,2013-04-19 17:15:00
12:35 PM,33.8,25.3,71,29.88,10.0,WNW,16.1,23.0,N/A,,Clear,300,2013-04-19 17:35:00
12:55 PM,34.2,25.7,71,29.88,10.0,WNW,16.1,25.3,N/A,,Clear,300,2013-04-19 17:55:00
1:15 PM,34.5,25.5,70,29.88,10.0,NW,16.1,25.3,N/A,,Clear,310,2013-04-19 18:15:00
1:35 PM,35.6,27.1,71,29.89,10.0,WNW,17.3,24.2,N/A,,Clear,300,2013-04-19 18:35:00
1:55 PM,35.8,27.3,71,29.89,10.0,WNW,18.4,26.5,N/A,,Clear,300,2013-04-19 18:55:00
2:15 PM,36.1,25.9,66,29.90,10.0,NW,16.1,25.3,N/A,,Clear,320,2013-04-19 19:15:00
2:35 PM,36.5,24.8,63,29.91,10.0,NW,19.6,27.6,N/A,,Clear,310,2013-04-19 19:35:00
2:55 PM,36.9,25.0,62,29.92,10.0,NNW,21.9,29.9,N/A,,Scattered Clouds,340,2013-04-19 19:55:00
3:15 PM,36.9,24.4,61,29.92,10.0,NW,16.1,26.5,N/A,,Scattered Clouds,310,2013-04-19 20:15:00
3:35 PM,37.4,25.3,62,29.92,10.0,NW,13.8,25.3,N/A,,Scattered Clouds,310,2013-04-19 20:35:00
3:55 PM,36.9,23.4,58,29.93,10.0,NNW,18.4,28.8,N/A,,Scattered Clouds,340,2013-04-19 20:55:00
4:15 PM,36.5,23.9,60,29.94,10.0,NW,21.9,28.8,N/A,,Scattered Clouds,320,2013-04-19 21:15:00
4:35 PM,36.7,23.7,59,29.94,10.0,NW,20.7,-,N/A,,Scattered Clouds,320,2013-04-19 21:35:00
4:55 PM,36.5,22.8,58,29.95,10.0,NW,17.3,27.6,N/A,,Scattered Clouds,320,2013-04-19 21:55:00
5:15 PM,37.9,23.9,57,29.96,10.0,NW,17.3,26.5,N/A,,Scattered Clouds,320,2013-04-19 22:15:00
5:35 PM,37.4,23.4,57,29.96,10.0,NW,18.4,25.3,N/A,,Scattered Clouds,320,2013-04-19 22:35:00
5:55 PM,37.6,24.3,59,29.97,10.0,NNW,16.1,19.6,N/A,,Scattered Clouds,330,2013-04-19 22:55:00
6:15 PM,36.5,23.0,58,29.98,10.0,NW,12.7,25.3,N/A,,Scattered Clouds,320,2013-04-19 23:15:00
6:35 PM,36.5,23.2,59,29.98,10.0,NW,12.7,20.7,N/A,,Clear,310,2013-04-19 23:35:00
6:55 PM,36.0,22.1,57,29.99,10.0,NNW,15.0,24.2,N/A,,Clear,330,2013-04-19 23:55:00
7:15 PM,35.6,22.1,58,29.99,10.0,NW,12.7,19.6,N/A,,Clear,320,2013-04-20 00:15:00
7:35 PM,34.7,23.0,62,30.00,10.0,NNW,12.7,17.3,N/A,,Clear,340,2013-04-20 00:35:00
7:55 PM,33.6,23.0,65,30.01,10.0,NNW,11.5,16.1,N/A,,Clear,340,2013-04-20 00:55:00
8:15 PM,32.7,23.2,68,30.02,10.0,NW,9.2,-,N/A,,Clear,320,2013-04-20 01:15:00
8:35 PM,32.2,23.0,69,30.03,10.0,NNW,9.2,-,N/A,,Clear,330,2013-04-20 01:35:00
8:55 PM,32.0,22.6,68,30.04,10.0,NNW,9.2,-,N/A,,Clear,330,2013-04-20 01:55:00
9:15 PM,31.8,22.6,69,30.04,10.0,NNW,11.5,-,N/A,,Clear,330,2013-04-20 02:15:00
9:35 PM,31.1,23.0,72,30.06,10.0,NNW,9.2,-,N/A,,Clear,330,2013-04-20 02:35:00
9:55 PM,31.1,22.8,71,30.06,10.0,NNW,11.5,-,N/A,,Clear,330,2013-04-20 02:55:00
10:15 PM,31.1,22.3,70,30.07,10.0,NNW,11.5,17.3,N/A,,Clear,330,2013-04-20 03:15:00
10:35 PM,30.6,22.6,72,30.07,10.0,NNW,9.2,-,N/A,,Clear,330,2013-04-20 03:35:00
10:55 PM,30.2,22.5,73,30.08,10.0,NW,9.2,-,N/A,,Clear,320,2013-04-20 03:55:00
11:15 PM,30.0,22.3,73,30.08,10.0,NW,6.9,-,N/A,,Clear,320,2013-04-20 04:15:00
11:35 PM,29.5,22.6,76,30.08,10.0,NW,6.9,-,N/A,,Clear,320,2013-04-20 04:35:00
11:55 PM,29.3,22.6,76,30.08,10.0,NNW,8.1,-,N/A,,Clear,330,2013-04-20 04:55:00